Precipitable_Water
1.26 1.22 1.25 1.28 1.30 1.28 1.27 1.28 1.29 1.31 1.31 1.31 1.29 1.29 1.28 1.27 1.25 1.23 1.26 1.23 1.27 1.22 1.18 1.25 1.31 1.34 1.33 1.34 1.28 1.28 1.30 1.32 1.33 1.37 1.40 1.37 1.38 1.39 1.47 1.54 1.46 1.41 1.37 1.40 1.49 1.51 1.46 1.42 1.43 1.45 1.48 1.45 1.43 1.41 1.42 1.47 1.51 1.49 1.45 1.42 1.35 1.36 1.30 1.19 1.03 0.99 1.13 1.26 1.23 1.21 1.24 1.25 1.19 1.22 1.18 1.20 1.24 1.32 1.39 1.40 1.41 1.40 1.41 1.37 1.35
1.25 1.22 1.22 1.23 1.24 1.27 1.29 1.31 1.31 1.31 1.29 1.31 1.28 1.29 1.29 1.25 1.28 1.25 1.20 1.23 1.25 1.25 1.22 1.21 1.23 1.26 1.27 1.27 1.27 1.25 1.26 1.27 1.27 1.29 1.32 1.30 1.30 1.35 1.31 1.39 1.45 1.41 1.40 1.33 1.35 1.48 1.52 1.46 1.43 1.42 1.45 1.39 1.40 1.40 1.40 1.41 1.45 1.46 1.45 1.41 1.37 1.36 1.40 1.23 1.14 1.06 0.99 1.16 1.19 1.29 1.29 1.37 1.24 1.34 1.29 1.28 1.32 1.41 1.42 1.43 1.46 1.53 1.51 1.48 1.46
1.31 1.28 1.22 1.20 1.22 1.27 1.31 1.33 1.32 1.29 1.26 1.30 1.26 1.26 1.26 1.27 1.29 1.23 1.19 1.21 1.21 1.23 1.26 1.23 1.20 1.23 1.20 1.22 1.24 1.22 1.24 1.23 1.23 1.25 1.28 1.28 1.24 1.23 1.28 1.32 1.30 1.28 1.25 1.26 1.30 1.35 1.35 1.39 1.40 1.44 1.46 1.39 1.39 1.37 1.39 1.37 1.38 1.38 1.38 1.40 1.37 1.37 1.36 1.34 1.21 1.08 1.04 1.08 1.21 1.17 1.23 1.30 1.27 1.27 1.33 1.35 1.42 1.47 1.40 1.40 1.44 1.47 1.48 1.48 1.46
1.36 1.32 1.25 1.22 1.23 1.26 1.27 1.30 1.29 1.28 1.25 1.26 1.23 1.24 1.27 1.28 1.25 1.21 1.18 1.19 1.19 1.19 1.25 1.25 1.25 1.19 1.17 1.18 1.20 1.18 1.22 1.22 1.21 1.19 1.18 1.21 1.19 1.18 1.20 1.24 1.26 1.24 1.20 1.22 1.26 1.31 1.32 1.33 1.35 1.41 1.45 1.40 1.39 1.41 1.40 1.34 1.28 1.25 1.22 1.21 1.19 1.17 1.20 1.21 1.26 1.19 1.14 1.04 1.14 1.19 1.24 1.21 1.20 1.26 1.32 1.39 1.43 1.41 1.42 1.45 1.51 1.51 1.54 1.61 1.65
1.41 1.35 1.29 1.25 1.23 1.22 1.22 1.25 1.25 1.25 1.23 1.23 1.22 1.24 1.27 1.27 1.25 1.19 1.17 1.13 1.19 1.23 1.19 1.24 1.25 1.22 1.16 1.15 1.17 1.16 1.16 1.18 1.17 1.16 1.17 1.19 1.19 1.17 1.19 1.21 1.21 1.21 1.20 1.22 1.28 1.33 1.35 1.33 1.37 1.40 1.41 1.39 1.41 1.38 1.38 1.34 1.30 1.27 1.25 1.26 1.24 1.26 1.25 1.23 1.19 1.21 1.15 1.07 1.09 1.20 1.23 1.20 1.21 1.24 1.32 1.30 1.33 1.40 1.50 1.53 1.58 1.62 1.69 1.76 1.76
1.48 1.41 1.33 1.27 1.25 1.21 1.18 1.18 1.20 1.21 1.21 1.21 1.22 1.24 1.24 1.25 1.27 1.21 1.17 1.11 1.15 1.21 1.19 1.17 1.19 1.19 1.17 1.16 1.15 1.16 1.17 1.18 1.16 1.14 1.15 1.18 1.18 1.17 1.19 1.18 1.19 1.19 1.18 1.21 1.22 1.26 1.29 1.32 1.36 1.41 1.41 1.38 1.37 1.40 1.39 1.35 1.33 1.26 1.23 1.26 1.28 1.30 1.28 1.26 1.25 1.21 1.17 1.11 1.08 1.03 1.11 1.09 1.12 1.19 1.34 1.44 1.43 1.45 1.53 1.65 1.71 1.74 1.73 1.69 1.70
1.54 1.49 1.40 1.30 1.25 1.23 1.20 1.15 1.16 1.19 1.21 1.21 1.26 1.26 1.23 1.21 1.25 1.24 1.18 1.13 1.10 1.13 1.19 1.15 1.15 1.16 1.14 1.15 1.14 1.15 1.14 1.16 1.17 1.13 1.12 1.14 1.18 1.16 1.15 1.18 1.20 1.20 1.19 1.19 1.21 1.24 1.26 1.28 1.30 1.32 1.32 1.33 1.32 1.33 1.34 1.32 1.28 1.24 1.26 1.28 1.32 1.29 1.25 1.24 1.24 1.21 1.19 1.13 1.09 1.06 1.03 1.11 1.17 1.21 1.53 1.70 1.70 1.68 1.60 1.60 1.60 1.72 1.76 1.71 1.64
1.56 1.52 1.47 1.37 1.29 1.23 1.22 1.20 1.17 1.20 1.23 1.24 1.26 1.27 1.24 1.22 1.21 1.27 1.25 1.14 1.09 1.09 1.15 1.15 1.13 1.13 1.13 1.10 1.13 1.15 1.13 1.13 1.16 1.16 1.12 1.11 1.12 1.13 1.09 1.10 1.14 1.20 1.19 1.21 1.19 1.21 1.25 1.28 1.29 1.31 1.29 1.31 1.31 1.29 1.29 1.26 1.29 1.25 1.29 1.30 1.31 1.29 1.23 1.21 1.20 1.18 1.14 1.10 1.03 1.01 1.09 1.18 1.34 1.50 1.67 1.78 1.72 1.70 1.76 1.66 1.51 1.53 1.63 1.75 1.75
1.57 1.54 1.50 1.41 1.37 1.33 1.30 1.28 1.25 1.25 1.26 1.25 1.24 1.26 1.26 1.23 1.21 1.25 1.27 1.19 1.14 1.11 1.12 1.18 1.18 1.11 1.11 1.09 1.09 1.11 1.12 1.11 1.14 1.13 1.11 1.07 1.08 1.09 1.10 1.06 1.06 1.11 1.16 1.17 1.19 1.16 1.17 1.21 1.25 1.29 1.33 1.36 1.36 1.35 1.34 1.33 1.25 1.18 1.23 1.27 1.27 1.25 1.22 1.18 1.14 1.11 1.08 1.04 1.01 1.13 1.24 1.34 1.45 1.53 1.62 1.67 1.65 1.63 1.74 1.74 1.62 1.65 1.66 1.64 1.74
1.57 1.56 1.52 1.47 1.49 1.47 1.40 1.33 1.27 1.26 1.25 1.23 1.20 1.24 1.27 1.25 1.22 1.22 1.24 1.20 1.16 1.13 1.12 1.15 1.21 1.17 1.10 1.09 1.08 1.08 1.10 1.14 1.11 1.08 1.07 1.04 1.00 1.02 1.08 1.07 1.05 1.06 1.10 1.11 1.13 1.18 1.16 1.12 1.15 1.19 1.22 1.26 1.29 1.29 1.24 1.20 1.15 1.10 1.10 1.21 1.24 1.21 1.18 1.15 1.09 1.07 1.06 1.01 1.07 1.22 1.30 1.35 1.45 1.55 1.59 1.71 1.79 1.80 1.75 1.73 1.59 1.61 1.61 1.54 1.63
1.58 1.57 1.56 1.56 1.57 1.56 1.49 1.40 1.31 1.25 1.26 1.26 1.23 1.22 1.25 1.27 1.23 1.23 1.24 1.21 1.17 1.14 1.12 1.11 1.13 1.23 1.21 1.13 1.08 1.06 1.06 1.11 1.08 1.02 1.00 1.00 1.02 0.99 0.99 1.04 1.04 1.01 1.02 1.05 1.02 1.05 1.12 1.17 1.14 1.14 1.14 1.12 1.14 1.14 1.14 1.10 1.06 1.02 1.00 0.99 1.04 1.11 1.11 1.10 1.10 1.11 1.08 1.11 1.25 1.37 1.39 1.38 1.48 1.61 1.65 1.72 1.77 1.74 1.73 1.73 1.67 1.63 1.52 1.39 1.29
1.58 1.59 1.62 1.63 1.63 1.59 1.54 1.48 1.37 1.30 1.29 1.26 1.24 1.20 1.23 1.26 1.24 1.22 1.22 1.20 1.18 1.17 1.10 1.10 1.11 1.15 1.24 1.23 1.16 1.10 1.08 1.08 1.06 1.00 0.97 0.96 0.98 1.01 1.00 0.99 1.03 1.02 1.01 1.01 1.03 1.01 0.99 1.03 1.10 1.14 1.14 1.11 1.10 1.11 1.08 1.06 1.03 1.01 1.01 1.00 1.00 1.01 1.04 1.03 1.03 1.07 1.15 1.23 1.32 1.40 1.41 1.40 1.48 1.61 1.67 1.74 1.73 1.72 1.74 1.72 1.69 1.65 1.57 1.47 1.43
1.60 1.60 1.64 1.65 1.65 1.65 1.61 1.53 1.43 1.35 1.30 1.29 1.27 1.22 1.20 1.22 1.22 1.22 1.20 1.22 1.22 1.14 1.12 1.11 1.12 1.12 1.16 1.22 1.23 1.23 1.16 1.15 1.06 1.01 0.97 0.95 0.94 0.97 1.01 1.01 1.01 1.04 1.04 1.01 0.99 1.03 1.03 0.98 0.97 1.03 1.09 1.11 1.12 1.16 1.19 1.13 1.06 1.04 1.02 1.04 1.05 1.04 1.03 1.06 1.11 1.13 1.25 1.34 1.38 1.41 1.46 1.51 1.52 1.61 1.75 1.81 1.84 1.66 1.69 1.67 1.69 1.68 1.66 1.57 1.53
1.61 1.60 1.64 1.65 1.66 1.68 1.65 1.58 1.49 1.40 1.35 1.33 1.29 1.22 1.17 1.16 1.21 1.25 1.27 1.28 1.23 1.17 1.16 1.15 1.14 1.13 1.12 1.17 1.20 1.20 1.23 1.24 1.14 1.04 0.99 0.95 0.94 0.94 0.96 1.04 1.06 1.06 1.09 1.10 1.08 1.05 1.05 1.04 1.00 0.95 0.95 0.99 1.06 1.11 1.14 1.17 1.17 1.09 1.08 1.08 1.08 1.08 1.08 1.10 1.12 1.22 1.35 1.38 1.40 1.37 1.50 1.61 1.57 1.68 1.85 1.94 1.80 1.68 1.65 1.63 1.71 1.67 1.65 1.61 1.67
1.61 1.63 1.63 1.66 1.68 1.69 1.69 1.64 1.56 1.50 1.42 1.33 1.29 1.23 1.17 1.18 1.23 1.27 1.28 1.25 1.22 1.19 1.18 1.18 1.17 1.16 1.13 1.15 1.19 1.18 1.17 1.25 1.22 1.13 1.04 0.99 0.97 0.97 0.96 0.99 1.05 1.09 1.12 1.15 1.16 1.15 1.14 1.11 1.06 1.02 1.01 0.99 0.98 1.03 1.08 1.13 1.16 1.15 1.12 1.11 1.13 1.15 1.15 1.13 1.17 1.28 1.39 1.48 1.52 1.53 1.57 1.64 1.70 1.79 1.89 1.95 1.89 1.85 1.84 1.78 1.77 1.74 1.72 1.73 1.63
1.59 1.63 1.62 1.64 1.64 1.68 1.67 1.66 1.61 1.56 1.47 1.36 1.29 1.24 1.22 1.20 1.20 1.26 1.26 1.28 1.31 1.29 1.26 1.24 1.21 1.18 1.18 1.16 1.14 1.14 1.17 1.20 1.20 1.15 1.10 1.06 1.05 1.06 1.04 1.00 0.99 1.01 1.05 1.08 1.13 1.18 1.19 1.18 1.14 1.08 1.05 1.04 1.01 1.01 1.03 1.12 1.18 1.19 1.16 1.17 1.21 1.26 1.32 1.38 1.44 1.51 1.60 1.66 1.70 1.69 1.70 1.76 1.80 1.84 1.92 1.93 1.92 1.94 1.91 1.89 1.85 1.74 1.54 1.40 1.33
1.54 1.57 1.58 1.62 1.64 1.67 1.66 1.65 1.62 1.58 1.51 1.39 1.30 1.27 1.25 1.23 1.23 1.28 1.22 1.23 1.26 1.26 1.24 1.21 1.24 1.23 1.20 1.18 1.12 1.13 1.16 1.17 1.15 1.13 1.10 1.10 1.10 1.12 1.10 1.08 1.05 1.01 1.00 1.04 1.07 1.12 1.16 1.17 1.16 1.14 1.14 1.08 1.04 1.03 1.04 1.07 1.07 1.09 1.10 1.12 1.19 1.23 1.27 1.40 1.51 1.58 1.65 1.73 1.76 1.75 1.74 1.75 1.79 1.85 1.91 1.94 1.94 1.93 1.86 1.72 1.60 1.52 1.35 1.21 1.22
1.50 1.54 1.55 1.60 1.62 1.64 1.65 1.63 1.60 1.58 1.52 1.39 1.32 1.31 1.32 1.30 1.26 1.28 1.20 1.17 1.18 1.25 1.28 1.26 1.26 1.26 1.22 1.19 1.16 1.12 1.12 1.18 1.13 1.11 1.10 1.11 1.11 1.12 1.12 1.11 1.08 1.06 1.05 1.07 1.10 1.12 1.13 1.12 1.14 1.15 1.12 1.11 1.10 1.07 1.06 1.07 1.06 1.07 1.07 1.07 1.08 1.12 1.16 1.26 1.40 1.57 1.64 1.68 1.72 1.74 1.76 1.80 1.84 1.88 1.93 1.93 1.88 1.84 1.74 1.53 1.47 1.39 1.30 1.29 1.19
1.45 1.48 1.52 1.59 1.62 1.64 1.64 1.62 1.59 1.56 1.48 1.39 1.37 1.35 1.34 1.31 1.31 1.32 1.27 1.23 1.21 1.26 1.31 1.30 1.30 1.31 1.26 1.23 1.22 1.15 1.13 1.18 1.15 1.12 1.11 1.13 1.15 1.18 1.17 1.14 1.10 1.10 1.09 1.08 1.10 1.11 1.12 1.13 1.11 1.12 1.13 1.13 1.12 1.12 1.10 1.10 1.09 1.10 1.09 1.09 1.07 1.07 1.18 1.35 1.41 1.47 1.60 1.65 1.71 1.77 1.81 1.90 1.92 1.93 1.93 1.88 1.80 1.73 1.65 1.56 1.55 1.47 1.39 1.38 1.29
1.42 1.53 1.59 1.60 1.62 1.63 1.62 1.58 1.56 1.52 1.44 1.39 1.41 1.41 1.41 1.39 1.36 1.32 1.29 1.29 1.26 1.26 1.29 1.29 1.29 1.30 1.32 1.29 1.27 1.24 1.17 1.20 1.18 1.15 1.14 1.14 1.17 1.20 1.23 1.15 1.11 1.12 1.12 1.09 1.09 1.11 1.11 1.12 1.14 1.10 1.07 1.08 1.11 1.13 1.12 1.13 1.11 1.14 1.15 1.10 1.08 1.10 1.33 1.41 1.45 1.53 1.60 1.68 1.76 1.85 1.86 1.88 1.87 1.89 1.87 1.85 1.79 1.72 1.68 1.68 1.66 1.62 1.49 1.33 1.14
1.48 1.56 1.56 1.55 1.57 1.58 1.58 1.52 1.47 1.46 1.44 1.38 1.39 1.41 1.41 1.38 1.36 1.33 1.30 1.31 1.31 1.28 1.26 1.28 1.27 1.30 1.34 1.35 1.32 1.34 1.29 1.21 1.21 1.20 1.18 1.17 1.20 1.22 1.26 1.23 1.24 1.22 1.18 1.15 1.13 1.13 1.14 1.12 1.16 1.15 1.09 1.06 1.06 1.08 1.11 1.11 1.12 1.14 1.15 1.11 1.18 1.42 1.43 1.42 1.45 1.50 1.54 1.55 1.58 1.64 1.70 1.74 1.78 1.78 1.72 1.68 1.67 1.68 1.71 1.74 1.75 1.64 1.37 1.13 0.94
1.46 1.52 1.50 1.49 1.53 1.54 1.49 1.48 1.48 1.46 1.43 1.40 1.35 1.32 1.36 1.36 1.34 1.33 1.32 1.30 1.27 1.27 1.25 1.25 1.24 1.27 1.31 1.33 1.35 1.34 1.39 1.31 1.28 1.26 1.25 1.24 1.27 1.30 1.33 1.37 1.38 1.34 1.27 1.23 1.21 1.18 1.21 1.24 1.21 1.22 1.18 1.13 1.12 1.12 1.11 1.11 1.12 1.15 1.13 1.17 1.27 1.32 1.35 1.40 1.44 1.48 1.50 1.54 1.56 1.55 1.57 1.61 1.62 1.57 1.52 1.50 1.50 1.56 1.62 1.59 1.53 1.38 1.18 1.11 1.05
1.43 1.47 1.48 1.47 1.51 1.48 1.45 1.43 1.44 1.47 1.45 1.43 1.37 1.31 1.35 1.33 1.32 1.32 1.27 1.26 1.24 1.22 1.22 1.22 1.20 1.21 1.24 1.31 1.33 1.36 1.38 1.40 1.39 1.32 1.32 1.34 1.36 1.38 1.41 1.45 1.49 1.47 1.39 1.31 1.28 1.27 1.31 1.32 1.34 1.34 1.28 1.25 1.23 1.21 1.19 1.18 1.17 1.14 1.15 1.20 1.26 1.30 1.33 1.36 1.39 1.42 1.44 1.49 1.50 1.48 1.54 1.61 1.52 1.49 1.54 1.55 1.56 1.57 1.49 1.44 1.36 1.31 1.27 1.28 1.26
1.44 1.47 1.46 1.47 1.47 1.45 1.45 1.44 1.46 1.47 1.47 1.46 1.43 1.38 1.37 1.38 1.37 1.36 1.33 1.27 1.23 1.19 1.21 1.20 1.18 1.16 1.17 1.22 1.31 1.37 1.43 1.49 1.51 1.48 1.48 1.48 1.48 1.47 1.46 1.48 1.52 1.49 1.48 1.44 1.46 1.44 1.41 1.45 1.46 1.44 1.39 1.35 1.32 1.29 1.27 1.24 1.20 1.19 1.21 1.24 1.29 1.33 1.34 1.35 1.38 1.40 1.45 1.49 1.48 1.49 1.53 1.52 1.55 1.54 1.55 1.57 1.49 1.43 1.48 1.52 1.49 1.34 1.21 1.18 1.18
1.44 1.44 1.43 1.45 1.47 1.45 1.43 1.43 1.46 1.47 1.49 1.49 1.43 1.41 1.40 1.39 1.36 1.39 1.38 1.35 1.32 1.30 1.31 1.32 1.26 1.25 1.28 1.31 1.37 1.46 1.57 1.62 1.69 1.66 1.63 1.62 1.59 1.57 1.55 1.54 1.54 1.55 1.50 1.51 1.53 1.54 1.58 1.59 1.59 1.55 1.48 1.43 1.38 1.34 1.31 1.29 1.28 1.27 1.29 1.31 1.33 1.34 1.35 1.37 1.40 1.46 1.47 1.47 1.46 1.45 1.49 1.55 1.55 1.56 1.59 1.47 1.45 1.57 1.58 1.48 1.36 1.24 1.20 1.17 1.12
1.41 1.43 1.45 1.46 1.46 1.44 1.37 1.43 1.47 1.48 1.50 1.53 1.50 1.49 1.46 1.43 1.40 1.41 1.42 1.39 1.38 1.36 1.37 1.36 1.36 1.37 1.40 1.45 1.48 1.56 1.68 1.70 1.72 1.75 1.73 1.73 1.72 1.70 1.69 1.67 1.67 1.67 1.67 1.68 1.62 1.60 1.57 1.55 1.54 1.54 1.53 1.51 1.48 1.44 1.40 1.39 1.37 1.36 1.35 1.37 1.39 1.40 1.43 1.46 1.50 1.47 1.46 1.50 1.43 1.39 1.45 1.48 1.51 1.58 1.52 1.52 1.52 1.52 1.45 1.33 1.19 1.12 1.08 1.03 0.98
1.43 1.46 1.48 1.49 1.49 1.44 1.39 1.41 1.47 1.51 1.54 1.56 1.56 1.54 1.53 1.49 1.44 1.42 1.42 1.40 1.41 1.41 1.42 1.42 1.44 1.48 1.50 1.55 1.61 1.66 1.68 1.73 1.78 1.84 1.85 1.84 1.82 1.82 1.81 1.79 1.80 1.78 1.76 1.75 1.74 1.72 1.69 1.66 1.63 1.60 1.58 1.57 1.56 1.54 1.51 1.49 1.49 1.49 1.49 1.49 1.50 1.51 1.56 1.57 1.50 1.48 1.50 1.46 1.45 1.47 1.49 1.53 1.54 1.43 1.48 1.48 1.49 1.49 1.39 1.22 1.09 1.03 1.03 1.01 0.97
1.45 1.48 1.50 1.51 1.49 1.45 1.43 1.47 1.54 1.57 1.60 1.59 1.56 1.52 1.52 1.52 1.46 1.44 1.43 1.44 1.45 1.46 1.46 1.49 1.51 1.53 1.55 1.60 1.64 1.67 1.68 1.74 1.81 1.87 1.91 1.90 1.90 1.90 1.90 1.89 1.85 1.82 1.79 1.81 1.83 1.84 1.79 1.78 1.76 1.73 1.69 1.64 1.61 1.59 1.55 1.53 1.52 1.51 1.54 1.59 1.64 1.72 1.66 1.60 1.65 1.70 1.68 1.68 1.63 1.63 1.58 1.46 1.37 1.48 1.50 1.47 1.46 1.38 1.28 1.11 1.00 1.01 1.00 0.99 0.95
1.51 1.53 1.54 1.55 1.52 1.50 1.49 1.52 1.59 1.63 1.63 1.61 1.65 1.72 1.60 1.52 1.53 1.57 1.64 1.67 1.63 1.58 1.55 1.56 1.61 1.66 1.69 1.70 1.70 1.70 1.75 1.77 1.87 2.00 2.04 2.02 2.00 1.96 1.94 1.95 1.95 1.93 1.92 1.92 1.92 1.92 1.86 1.81 1.78 1.75 1.72 1.67 1.65 1.62 1.62 1.61 1.63 1.66 1.69 1.73 1.79 1.81 1.75 1.72 1.67 1.70 1.74 1.67 1.62 1.53 1.43 1.48 1.51 1.55 1.48 1.43 1.40 1.26 1.17 1.02 1.03 1.01 1.02 1.02 0.94
1.53 1.55 1.56 1.54 1.56 1.50 1.54 1.57 1.60 1.67 1.66 1.59 1.53 1.55 1.62 1.65 1.70 1.78 1.74 1.70 1.75 1.77 1.77 1.78 1.82 1.87 1.85 1.93 1.92 1.82 1.85 2.01 2.07 2.10 2.10 2.07 2.08 2.08 2.09 2.09 2.07 2.04 2.03 2.00 1.96 1.87 1.80 1.77 1.79 1.77 1.75 1.73 1.69 1.67 1.69 1.72 1.73 1.74 1.78 1.82 1.84 1.80 1.78 1.79 1.80 1.80 1.76 1.65 1.58 1.54 1.51 1.50 1.46 1.46 1.41 1.30 1.27 1.16 1.10 1.01 1.01 1.03 1.00 0.95 0.90
1.56 1.58 1.57 1.55 1.55 1.53 1.56 1.59 1.60 1.65 1.70 1.67 1.61 1.58 1.61 1.67 1.73 1.80 1.82 1.84 1.81 1.76 1.77 1.83 1.90 1.96 1.99 1.91 1.98 2.01 2.03 2.08 2.12 2.14 2.15 2.15 2.13 2.11 2.09 2.11 2.11 2.08 2.06 1.99 1.88 1.80 1.73 1.68 1.70 1.71 1.68 1.67 1.64 1.64 1.68 1.68 1.67 1.69 1.71 1.74 1.77 1.75 1.73 1.76 1.77 1.69 1.48 1.42 1.42 1.50 1.53 1.50 1.43 1.40 1.29 1.22 1.12 1.05 1.07 1.07 1.05 1.03 0.97 0.93 0.91
1.55 1.58 1.57 1.57 1.58 1.59 1.58 1.60 1.64 1.65 1.74 1.82 1.79 1.65 1.62 1.59 1.63 1.72 1.78 1.81 1.83 1.83 1.81 1.82 1.87 1.91 1.93 1.91 1.89 1.92 1.97 1.99 2.01 2.05 2.10 2.13 2.12 2.10 2.06 2.02 2.01 1.98 1.97 1.91 1.74 1.68 1.66 1.59 1.61 1.63 1.64 1.63 1.64 1.68 1.69 1.66 1.66 1.67 1.64 1.62 1.66 1.70 1.70 1.64 1.64 1.53 1.52 1.53 1.56 1.54 1.53 1.43 1.32 1.30 1.22 1.16 1.03 1.00 1.01 0.99 0.98 0.98 0.97 0.96 0.93
1.59 1.58 1.57 1.60 1.60 1.60 1.60 1.63 1.70 1.72 1.73 1.78 1.84 1.80 1.69 1.61 1.56 1.58 1.69 1.78 1.83 1.83 1.84 1.83 1.84 1.88 1.91 1.93 1.93 1.90 1.90 1.92 1.96 2.00 2.02 2.03 2.03 2.00 1.97 1.93 1.90 1.88 1.86 1.75 1.66 1.63 1.62 1.58 1.58 1.64 1.64 1.61 1.64 1.65 1.66 1.63 1.60 1.59 1.62 1.64 1.64 1.62 1.62 1.64 1.61 1.67 1.72 1.68 1.55 1.47 1.40 1.37 1.31 1.24 1.17 1.03 0.97 1.00 1.03 1.00 1.01 1.00 0.98 0.93 0.90
1.67 1.63 1.63 1.62 1.60 1.60 1.67 1.73 1.76 1.78 1.77 1.78 1.83 1.85 1.79 1.72 1.66 1.61 1.58 1.62 1.69 1.77 1.83 1.85 1.86 1.87 1.89 1.91 1.91 1.91 1.93 1.95 1.95 1.95 1.97 1.98 1.96 1.95 1.91 1.88 1.87 1.87 1.81 1.70 1.66 1.62 1.64 1.59 1.60 1.62 1.62 1.64 1.67 1.68 1.68 1.67 1.64 1.68 1.73 1.72 1.66 1.67 1.66 1.64 1.58 1.53 1.53 1.51 1.44 1.40 1.35 1.29 1.30 1.21 1.12 1.08 1.10 1.09 1.02 1.05 1.04 1.00 0.97 0.93 0.90
1.70 1.68 1.69 1.69 1.70 1.72 1.77 1.85 1.82 1.82 1.83 1.82 1.82 1.82 1.77 1.71 1.70 1.67 1.61 1.57 1.56 1.58 1.61 1.70 1.78 1.84 1.86 1.87 1.87 1.89 1.90 1.90 1.91 1.91 1.90 1.90 1.90 1.88 1.83 1.76 1.68 1.67 1.70 1.72 1.70 1.72 1.72 1.63 1.58 1.58 1.60 1.60 1.64 1.67 1.64 1.63 1.67 1.68 1.65 1.61 1.57 1.57 1.55 1.48 1.46 1.56 1.49 1.48 1.39 1.40 1.41 1.33 1.30 1.23 1.15 1.15 1.14 1.12 1.09 1.05 1.02 0.98 0.97 0.95 0.96
1.82 1.76 1.78 1.84 1.91 1.92 1.89 1.87 1.88 1.88 1.86 1.83 1.81 1.77 1.74 1.68 1.62 1.64 1.64 1.60 1.56 1.49 1.45 1.53 1.62 1.68 1.74 1.77 1.81 1.84 1.87 1.88 1.90 1.90 1.90 1.90 1.88 1.82 1.63 1.60 1.63 1.64 1.64 1.67 1.66 1.68 1.69 1.67 1.64 1.63 1.61 1.57 1.62 1.61 1.59 1.58 1.57 1.52 1.44 1.41 1.42 1.52 1.50 1.49 1.57 1.54 1.45 1.46 1.38 1.41 1.38 1.29 1.27 1.24 1.17 1.16 1.15 1.09 1.05 1.03 1.01 1.00 0.99 0.98 0.98
1.74 1.74 1.77 1.79 1.86 1.98 2.01 2.02 1.94 1.89 1.85 1.80 1.73 1.64 1.56 1.55 1.56 1.60 1.55 1.47 1.41 1.40 1.40 1.45 1.51 1.57 1.63 1.67 1.69 1.71 1.74 1.77 1.79 1.82 1.83 1.84 1.85 1.81 1.72 1.68 1.65 1.64 1.58 1.56 1.60 1.61 1.62 1.66 1.69 1.65 1.60 1.58 1.62 1.62 1.59 1.57 1.58 1.55 1.52 1.54 1.62 1.59 1.64 1.60 1.53 1.47 1.44 1.42 1.39 1.36 1.30 1.21 1.22 1.21 1.16 1.14 1.13 1.10 1.04 1.02 1.00 0.99 1.01 1.01 0.98
1.81 1.83 1.84 1.86 1.95 2.02 2.04 2.01 1.94 1.85 1.77 1.69 1.64 1.57 1.55 1.58 1.55 1.50 1.41 1.33 1.29 1.26 1.25 1.27 1.30 1.32 1.33 1.40 1.51 1.55 1.58 1.63 1.67 1.67 1.68 1.69 1.71 1.68 1.64 1.62 1.64 1.59 1.56 1.58 1.60 1.58 1.58 1.62 1.60 1.59 1.63 1.68 1.67 1.64 1.61 1.64 1.68 1.65 1.61 1.56 1.49 1.52 1.53 1.52 1.54 1.50 1.43 1.34 1.30 1.27 1.23 1.23 1.31 1.27 1.18 1.06 1.00 1.02 1.03 1.01 1.00 1.01 1.03 1.04 1.04
1.81 1.85 1.87 1.85 1.86 1.95 1.95 1.93 1.88 1.78 1.67 1.66 1.68 1.68 1.58 1.49 1.47 1.36 1.27 1.22 1.21 1.20 1.20 1.23 1.23 1.25 1.30 1.37 1.38 1.45 1.46 1.42 1.41 1.43 1.49 1.54 1.54 1.54 1.61 1.70 1.68 1.61 1.59 1.61 1.62 1.56 1.52 1.50 1.52 1.54 1.58 1.61 1.63 1.66 1.66 1.65 1.66 1.61 1.60 1.61 1.63 1.51 1.46 1.46 1.46 1.41 1.31 1.24 1.29 1.32 1.30 1.24 1.27 1.22 1.16 1.09 1.07 1.06 1.06 1.05 1.06 1.06 1.04 1.04 1.05
1.81 1.82 1.80 1.82 1.81 1.82 1.85 1.82 1.73 1.64 1.63 1.62 1.60 1.61 1.53 1.50 1.43 1.34 1.28 1.26 1.24 1.24 1.24 1.23 1.24 1.29 1.35 1.38 1.38 1.39 1.32 1.31 1.33 1.36 1.37 1.38 1.40 1.47 1.55 1.57 1.54 1.45 1.41 1.44 1.45 1.44 1.40 1.41 1.47 1.54 1.60 1.65 1.65 1.65 1.62 1.55 1.54 1.59 1.60 1.51 1.46 1.43 1.43 1.36 1.30 1.24 1.25 1.26 1.30 1.33 1.34 1.32 1.28 1.24 1.20 1.16 1.11 1.11 1.10 1.09 1.09 1.10 1.10 1.08 1.07
1.74 1.76 1.71 1.71 1.74 1.77 1.74 1.70 1.65 1.57 1.49 1.46 1.48 1.47 1.42 1.39 1.37 1.36 1.35 1.32 1.30 1.28 1.27 1.25 1.26 1.31 1.36 1.38 1.38 1.35 1.31 1.29 1.32 1.33 1.31 1.33 1.37 1.38 1.37 1.36 1.34 1.33 1.33 1.34 1.36 1.40 1.43 1.49 1.52 1.56 1.59 1.60 1.60 1.64 1.65 1.60 1.57 1.53 1.50 1.47 1.42 1.37 1.33 1.32 1.37 1.35 1.27 1.30 1.32 1.30 1.28 1.27 1.24 1.15 1.11 1.14 1.15 1.13 1.13 1.12 1.12 1.12 1.13 1.11 1.08
1.71 1.67 1.65 1.66 1.65 1.60 1.55 1.53 1.50 1.53 1.54 1.52 1.47 1.44 1.44 1.44 1.42 1.40 1.36 1.32 1.31 1.30 1.28 1.30 1.33 1.34 1.33 1.32 1.31 1.32 1.30 1.29 1.30 1.30 1.35 1.40 1.41 1.39 1.38 1.35 1.36 1.37 1.39 1.43 1.49 1.54 1.57 1.55 1.52 1.53 1.57 1.62 1.58 1.55 1.53 1.48 1.45 1.45 1.47 1.48 1.45 1.43 1.43 1.41 1.41 1.38 1.36 1.33 1.29 1.26 1.26 1.23 1.22 1.23 1.20 1.15 1.10 1.08 1.13 1.13 1.14 1.14 1.13 1.11 1.10
1.57 1.61 1.57 1.55 1.51 1.47 1.47 1.46 1.46 1.45 1.44 1.40 1.38 1.43 1.45 1.43 1.40 1.37 1.35 1.35 1.35 1.35 1.36 1.35 1.35 1.34 1.33 1.36 1.37 1.36 1.35 1.37 1.39 1.41 1.44 1.47 1.45 1.42 1.39 1.37 1.37 1.40 1.44 1.49 1.55 1.58 1.56 1.52 1.53 1.57 1.60 1.60 1.53 1.49 1.48 1.49 1.48 1.46 1.45 1.37 1.34 1.37 1.35 1.33 1.37 1.39 1.39 1.33 1.28 1.26 1.23 1.21 1.19 1.15 1.14 1.17 1.16 1.14 1.11 1.12 1.12 1.13 1.13 1.13 1.13
1.46 1.43 1.43 1.47 1.48 1.49 1.46 1.42 1.39 1.39 1.40 1.41 1.42 1.44 1.45 1.43 1.40 1.39 1.38 1.37 1.36 1.36 1.35 1.35 1.35 1.35 1.37 1.41 1.42 1.39 1.37 1.39 1.41 1.45 1.47 1.42 1.38 1.35 1.36 1.38 1.39 1.39 1.41 1.43 1.47 1.49 1.48 1.47 1.48 1.49 1.49 1.46 1.46 1.46 1.46 1.44 1.40 1.36 1.35 1.33 1.34 1.36 1.37 1.36 1.32 1.29 1.26 1.23 1.20 1.17 1.15 1.15 1.15 1.14 1.13 1.14 1.14 1.13 1.12 1.12 1.11 1.11 1.11 1.12 1.12
1.31 1.29 1.27 1.29 1.32 1.30 1.29 1.31 1.28 1.27 1.25 1.26 1.30 1.33 1.38 1.40 1.38 1.36 1.34 1.33 1.33 1.33 1.33 1.33 1.34 1.33 1.33 1.34 1.36 1.36 1.36 1.36 1.37 1.38 1.38 1.36 1.36 1.37 1.38 1.39 1.39 1.39 1.40 1.41 1.43 1.44 1.44 1.44 1.44 1.44 1.45 1.47 1.47 1.45 1.43 1.43 1.42 1.43 1.43 1.42 1.37 1.33 1.29 1.27 1.26 1.26 1.24 1.18 1.14 1.10 1.09 1.09 1.10 1.11 1.10 1.11 1.12 1.11 1.10 1.10 1.09 1.09 1.09 1.10 1.09
1.17 1.19 1.19 1.17 1.18 1.18 1.18 1.18 1.18 1.18 1.19 1.19 1.17 1.17 1.19 1.24 1.29 1.30 1.29 1.27 1.26 1.25 1.27 1.29 1.30 1.30 1.31 1.34 1.37 1.38 1.37 1.35 1.32 1.30 1.27 1.27 1.32 1.38 1.40 1.41 1.40 1.40 1.40 1.40 1.41 1.41 1.40 1.39 1.38 1.38 1.37 1.36 1.36 1.37 1.38 1.38 1.37 1.36 1.35 1.33 1.30 1.30 1.29 1.25 1.22 1.18 1.15 1.11 1.09 1.09 1.10 1.09 1.09 1.08 1.08 1.08 1.09 1.09 1.08 1.09 1.10 1.10 1.09 1.08 1.07
1.09 1.11 1.13 1.12 1.12 1.15 1.14 1.14 1.13 1.14 1.16 1.16 1.14 1.12 1.13 1.15 1.18 1.21 1.24 1.25 1.27 1.30 1.30 1.30 1.30 1.28 1.27 1.29 1.31 1.32 1.33 1.31 1.28 1.29 1.41 1.49 1.49 1.55 1.52 1.46 1.40 1.35 1.31 1.31 1.32 1.33 1.34 1.35 1.36 1.35 1.34 1.32 1.29 1.29 1.29 1.27 1.25 1.24 1.23 1.24 1.25 1.24 1.21 1.16 1.11 1.12 1.12 1.12 1.12 1.11 1.10 1.10 1.11 1.11 1.11 1.10 1.09 1.08 1.07 1.06 1.06 1.04 1.03 1.03 1.02
1.06 1.05 1.06 1.06 1.06 1.07 1.10 1.11 1.09 1.11 1.13 1.14 1.13 1.11 1.10 1.10 1.12 1.14 1.16 1.18 1.20 1.23 1.25 1.24 1.24 1.28 1.36 1.41 1.42 1.37 1.32 1.30 1.30 1.34 1.41 1.46 1.50 1.48 1.44 1.37 1.31 1.28 1.27 1.29 1.31 1.34 1.34 1.34 1.33 1.30 1.29 1.29 1.27 1.27 1.27 1.25 1.23 1.20 1.16 1.16 1.17 1.15 1.09 1.09 1.11 1.12 1.11 1.12 1.14 1.15 1.15 1.13 1.12 1.11 1.10 1.09 1.06 1.04 1.03 1.01 1.01 1.01 1.00 0.98 0.94
1.06 1.04 1.03 1.03 1.02 1.03 1.02 1.02 1.04 1.07 1.08 1.10 1.11 1.11 1.11 1.10 1.08 1.09 1.11 1.14 1.16 1.19 1.21 1.21 1.20 1.23 1.29 1.33 1.33 1.29 1.29 1.28 1.27 1.31 1.34 1.33 1.31 1.30 1.31 1.31 1.31 1.32 1.33 1.33 1.33 1.31 1.27 1.22 1.21 1.23 1.25 1.26 1.24 1.22 1.18 1.14 1.08 1.02 1.01 1.03 1.05 1.07 1.09 1.11 1.11 1.11 1.12 1.13 1.14 1.15 1.15 1.13 1.11 1.09 1.08 1.07 1.07 1.08 1.08 1.07 1.05 1.03 1.01 0.98 0.97
1.05 1.04 1.03 1.02 1.01 1.00 1.01 1.01 1.02 1.06 1.10 1.11 1.10 1.10 1.11 1.11 1.10 1.09 1.09 1.12 1.13 1.14 1.16 1.17 1.17 1.18 1.20 1.21 1.22 1.25 1.28 1.32 1.36 1.36 1.35 1.35 1.35 1.34 1.35 1.37 1.37 1.37 1.36 1.34 1.32 1.29 1.28 1.27 1.25 1.22 1.19 1.16 1.14 1.12 1.12 1.13 1.11 1.09 1.07 1.05 1.04 1.06 1.07 1.08 1.08 1.07 1.07 1.07 1.09 1.12 1.12 1.11 1.10 1.10 1.09 1.09 1.10 1.10 1.07 1.04 1.02 1.00 1.00 1.00 1.00
1.07 1.06 1.04 1.03 1.02 1.02 1.01 0.99 1.00 1.01 1.03 1.09 1.13 1.13 1.11 1.10 1.10 1.10 1.10 1.10 1.12 1.13 1.14 1.16 1.18 1.19 1.21 1.23 1.25 1.25 1.26 1.28 1.31 1.33 1.35 1.39 1.42 1.43 1.41 1.37 1.34 1.32 1.28 1.25 1.23 1.22 1.21 1.21 1.21 1.20 1.19 1.18 1.16 1.17 1.17 1.15 1.10 1.07 1.04 1.02 1.01 0.99 1.00 1.01 1.03 1.04 1.05 1.06 1.09 1.11 1.10 1.09 1.08 1.08 1.07 1.07 1.07 1.05 1.03 1.02 1.01 1.01 1.02 1.01 1.00
Wind_Speed
30 30 30 29 29 28 28 27 27 26 26 25 25 24 24 24 23 22 22 21 21 20 20 19 18 17 16 15 14 14 13 13 12 12 11 11 11 10 10 9 9 8 8 8 7 6 6 6 5 5 5 5 5 5 5 5 5 5 5 5 4 4 4 4 5 5 6 6 7 8 9 10 11 12 13 14 16 16 17 17 17 18 19 20 20
29 30 30 30 30 30 29 28 28 27 26 26 25 25 24 24 24 23 23 22 22 21 21 20 19 18 17 16 15 14 14 14 14 13 13 12 12 12 11 11 11 10 10 9 9 8 7 7 7 6 6 6 7 7 6 6 6 6 6 6 6 5 5 6 6 7 8 8 8 9 10 11 12 13 14 16 17 17 17 17 17 18 19 20 21
28 29 30 30 31 31 30 29 29 28 27 26 26 25 25 25 24 24 23 23 23 22 21 21 20 20 18 17 16 16 15 15 14 14 14 13 13 13 13 13 12 12 12 11 10 10 9 8 8 8 7 7 8 8 8 7 7 7 7 7 7 7 7 7 8 9 10 10 10 11 11 12 13 14 15 16 16 16 16 17 18 19 20 20 20
27 28 29 30 31 31 31 30 30 29 28 27 27 26 25 25 25 25 24 23 23 23 22 22 21 21 20 19 18 17 16 16 15 15 15 14 14 14 14 14 14 14 13 13 12 11 11 10 10 9 9 8 8 9 9 9 8 8 8 8 8 8 8 8 9 10 10 11 11 12 13 13 14 15 16 16 16 16 17 18 18 18 19 19 20
26 28 29 30 30 31 31 31 31 30 29 28 27 27 26 25 25 25 25 24 23 23 23 22 22 21 21 20 19 18 17 17 16 16 15 15 15 15 15 15 15 15 15 14 14 13 13 12 11 11 10 10 10 10 10 10 10 9 9 9 9 9 9 9 10 10 11 12 12 13 14 15 16 16 16 16 17 17 16 16 17 17 18 19 19
25 26 28 29 30 31 31 31 31 31 30 29 28 28 27 25 25 25 25 25 24 23 24 23 23 22 21 21 20 19 18 18 17 17 16 16 15 15 15 15 15 15 15 15 15 15 14 14 13 13 12 11 11 11 11 11 11 11 11 11 10 10 10 10 11 11 11 12 13 14 14 15 16 16 16 16 15 16 16 16 16 17 18 18 19
25 25 26 28 29 30 31 31 31 31 31 30 29 28 28 26 26 25 25 26 25 24 24 24 24 23 22 21 21 20 19 19 18 17 17 16 16 16 16 16 16 16 16 16 16 16 15 15 15 14 14 14 13 12 12 12 12 12 12 12 12 11 11 11 11 11 11 12 13 14 14 14 15 15 15 15 15 15 15 16 17 17 18 18 20
25 25 26 26 27 29 30 30 31 30 31 31 30 29 29 28 27 26 25 26 26 25 24 24 24 24 23 22 21 21 20 20 19 18 18 17 16 16 16 16 16 16 16 17 17 16 16 16 16 15 15 15 14 14 14 14 14 14 13 13 12 12 12 12 12 12 12 12 13 13 13 13 14 15 15 14 14 14 14 15 17 18 19 19 20
26 25 25 26 27 28 28 29 30 30 30 31 31 30 29 29 28 27 26 26 26 25 25 24 24 24 24 23 22 22 21 20 20 19 18 18 17 17 17 17 16 16 16 17 17 17 16 16 16 16 16 16 16 15 15 14 14 14 14 13 13 13 13 12 12 12 12 12 13 13 13 13 13 14 14 13 14 14 15 16 18 19 20 21 21
26 26 26 26 26 27 28 28 29 29 30 30 31 30 30 29 29 28 27 27 26 26 26 25 24 24 24 24 23 22 22 21 21 20 19 19 18 17 17 17 17 17 17 17 17 17 17 16 16 16 17 17 17 16 16 15 15 15 15 14 14 14 14 13 13 13 13 13 13 12 13 13 14 14 14 15 15 15 16 17 19 21 22 22 22
27 26 26 26 26 26 27 27 28 29 29 29 30 31 30 29 29 28 28 27 27 27 26 26 25 25 24 24 24 23 23 22 22 21 21 20 19 18 18 18 18 18 18 18 18 18 17 17 17 17 17 17 17 17 17 16 16 17 16 16 16 15 15 14 14 14 14 14 13 13 13 14 15 15 15 16 15 15 17 19 20 22 22 23 23
28 27 26 26 26 25 26 27 27 28 28 29 30 30 30 30 29 29 28 28 28 28 27 27 26 26 25 24 24 24 23 23 23 22 22 21 20 19 18 18 18 18 18 18 18 18 18 18 17 17 17 17 17 17 17 17 17 17 17 17 17 17 17 17 16 15 15 14 14 14 15 15 16 16 16 16 16 17 19 20 21 22 23 23 24
29 28 27 26 26 26 26 26 27 27 28 29 29 30 30 30 30 30 29 29 28 28 28 27 27 27 26 25 24 24 23 23 23 23 22 22 22 20 19 19 18 18 18 18 19 19 19 19 18 18 18 17 18 18 17 17 17 17 18 18 18 18 18 18 18 17 17 16 16 16 16 16 17 17 17 17 17 18 20 21 22 23 24 25 26
29 29 27 27 26 26 26 26 26 27 27 28 29 29 30 30 31 30 30 29 29 28 28 28 27 27 27 25 24 24 23 23 23 23 23 23 22 21 20 19 19 18 18 19 19 19 19 19 19 19 19 18 18 18 18 17 17 17 18 18 19 19 19 19 19 18 18 18 18 18 18 18 18 18 18 18 19 20 21 22 23 24 25 26 27
30 29 28 27 27 26 25 25 26 27 27 28 28 29 29 30 30 31 30 30 29 29 28 28 28 28 27 26 25 25 24 23 23 24 24 23 23 22 21 21 20 20 19 19 19 20 20 20 20 20 20 19 19 19 19 18 18 18 18 19 19 19 19 19 19 18 18 18 19 19 19 19 19 19 20 19 20 21 22 23 24 25 26 27 27
30 30 29 28 28 27 26 25 26 27 27 27 28 28 29 29 30 30 30 30 29 29 29 28 28 28 28 27 27 26 25 24 24 24 24 24 23 23 22 22 22 22 21 21 21 21 21 21 21 21 20 20 20 20 20 19 19 19 19 19 19 19 19 19 19 19 19 18 19 19 20 19 19 20 21 21 22 23 23 24 24 25 25 26 27
31 31 30 30 29 28 27 26 26 26 27 27 28 28 28 29 29 29 30 29 29 29 29 29 28 28 28 28 27 27 26 25 26 26 25 24 24 23 23 22 22 23 23 22 22 22 22 22 22 22 22 21 21 21 21 20 21 20 20 20 20 20 20 19 19 20 20 20 19 19 20 20 21 21 22 23 23 23 24 24 25 25 25 26 26
31 32 31 30 30 29 28 27 27 26 27 27 28 28 28 28 28 29 29 29 29 28 28 28 28 28 29 28 28 28 27 27 27 27 26 25 25 24 23 23 23 23 23 23 23 23 23 23 23 23 23 22 22 22 21 21 22 22 21 21 21 21 21 20 20 20 20 20 20 20 21 22 22 22 23 24 23 23 23 24 24 25 26 26 26
32 32 32 31 30 29 28 28 27 26 27 27 28 28 28 28 28 28 28 29 29 28 27 27 28 28 28 28 28 28 28 27 27 27 26 26 25 24 23 23 23 23 23 24 24 24 24 24 24 24 24 24 23 23 22 22 22 22 22 22 22 22 21 21 20 20 20 20 20 21 21 22 22 23 24 24 23 22 23 24 25 25 26 26 26
32 32 31 31 30 29 28 27 27 26 26 27 28 28 28 27 27 27 28 28 28 27 27 27 27 27 27 28 28 28 28 27 27 27 27 26 26 25 24 23 24 24 24 24 24 24 24 24 24 25 25 25 25 24 23 23 23 23 23 23 22 22 21 21 20 20 20 21 21 22 22 22 23 24 24 23 23 23 23 24 25 25 26 26 27
31 31 31 31 30 28 27 27 26 25 25 26 27 27 27 27 27 27 27 27 27 27 27 27 27 26 26 26 26 27 27 26 26 26 26 26 26 26 24 24 24 24 24 24 24 24 24 24 24 25 25 26 26 25 25 24 24 24 24 24 23 22 22 21 21 21 22 22 23 23 23 24 24 24 23 23 23 23 23 23 24 26 26 27 27
30 31 31 30 29 28 27 26 25 24 24 25 26 26 27 27 26 26 26 26 26 26 26 26 26 25 25 25 25 25 25 25 25 25 26 26 26 26 25 24 24 24 24 24 25 24 24 24 24 24 25 26 26 26 26 25 25 25 25 25 25 24 24 24 23 23 23 23 23 24 24 24 24 24 24 23 23 23 23 24 26 27 27 27 27
31 31 31 30 28 28 27 26 25 24 24 25 25 26 26 26 25 25 25 25 25 25 25 25 25 24 24 24 24 24 24 24 24 24 25 25 26 26 26 25 24 24 24 24 24 24 23 23 23 23 24 25 25 25 25 25 25 25 26 26 26 26 26 26 25 24 25 24 24 24 24 24 24 24 23 23 23 24 25 27 28 27 27 26 27
31 31 31 30 28 27 26 25 25 24 24 24 25 25 26 25 25 24 24 24 23 23 23 23 23 23 23 22 22 23 23 23 23 23 24 24 25 25 26 25 24 24 24 24 23 23 23 22 23 23 23 24 24 24 24 24 24 25 25 26 26 26 26 26 25 25 25 25 25 25 25 24 24 24 24 24 25 26 27 27 27 26 26 26 27
32 32 31 30 28 27 26 25 25 24 24 24 25 25 25 25 25 24 24 23 23 23 22 23 23 22 22 22 22 22 22 22 22 23 23 24 24 25 25 25 25 24 24 23 22 22 21 21 21 22 22 23 23 23 23 24 24 25 25 25 26 26 26 26 26 26 26 25 25 25 24 24 24 25 25 25 26 26 27 27 26 26 26 26 27
32 32 31 29 28 27 25 25 25 25 24 24 25 25 25 25 25 24 24 23 23 23 23 23 23 22 22 22 22 22 23 23 23 23 23 24 24 24 25 25 26 25 24 22 21 21 20 20 20 21 21 22 22 23 23 23 24 24 25 25 26 26 26 26 26 26 25 25 24 24 24 24 25 25 26 26 26 26 27 27 26 26 26 26 26
32 31 30 29 28 28 26 25 25 25 24 24 24 25 25 25 25 24 24 24 24 23 23 23 23 23 23 23 23 23 23 24 24 24 24 24 25 24 24 25 25 25 24 23 22 22 22 21 21 20 21 21 22 22 23 23 24 24 25 25 26 26 26 26 26 25 25 25 25 24 25 25 25 25 26 26 26 26 27 26 26 25 26 26 26
32 31 30 29 29 28 27 26 26 25 25 24 24 25 25 25 25 25 25 25 24 24 24 23 23 23 23 23 23 23 24 24 24 24 24 24 25 25 24 24 24 25 25 24 24 23 23 22 22 22 22 22 23 23 24 24 24 25 25 26 26 26 26 26 26 26 26 26 25 25 25 26 26 26 26 26 26 27 26 25 25 25 26 26 26
32 31 30 30 29 29 29 28 27 26 25 25 24 23 24 24 24 24 24 24 23 23 23 23 23 23 23 23 23 23 23 23 23 23 23 23 23 24 24 24 24 25 26 26 25 24 24 24 24 25 25 25 25 26 26 26 26 26 26 27 27 26 26 26 26 26 26 25 25 25 25 25 25 25 25 26 26 26 25 25 25 26 26 26 27
32 32 31 30 30 30 29 28 27 26 25 25 24 23 22 22 22 22 23 22 22 21 21 22 22 22 22 22 21 22 22 22 21 22 22 22 23 23 23 23 23 24 25 25 25 25 25 25 26 26 26 27 27 27 27 27 27 27 27 27 27 27 26 26 26 26 25 25 25 25 25 25 25 25 25 26 25 25 24 25 25 26 26 27 28
32 32 31 30 30 30 30 29 28 27 26 25 24 24 23 22 22 22 21 21 21 21 21 21 20 20 21 21 20 20 20 20 20 20 21 22 22 22 22 22 22 23 23 24 24 25 25 25 26 26 26 27 27 27 28 28 28 28 28 27 27 27 27 26 26 25 25 25 25 25 25 25 25 25 25 25 24 24 24 25 25 25 26 27 29
32 31 30 30 30 30 29 28 28 27 27 26 25 24 24 23 23 22 21 21 21 21 21 21 20 20 20 20 20 20 20 20 19 19 20 20 21 21 21 21 21 22 22 23 24 25 25 25 25 26 26 27 28 28 28 28 28 29 28 28 28 27 27 26 26 26 26 26 26 25 25 25 25 25 24 24 24 24 24 25 25 26 27 28 29
32 31 30 30 29 29 29 29 28 28 27 27 26 25 25 25 24 23 23 22 22 21 21 21 22 22 21 21 21 21 21 21 21 21 21 21 21 22 22 22 22 23 23 24 25 25 25 26 26 27 27 27 28 28 28 28 29 29 28 28 28 27 27 26 26 26 27 26 25 25 25 25 24 24 24 24 24 24 25 25 26 26 27 28 30
31 30 29 30 30 29 29 29 29 28 27 27 26 25 25 25 25 24 24 23 23 23 23 22 23 23 24 23 23 23 23 23 23 23 23 23 23 24 24 24 24 24 25 25 26 26 27 27 27 27 27 28 28 28 29 29 29 28 27 27 26 26 26 26 25 25 25 25 25 25 25 25 24 23 24 24 24 25 25 26 26 27 28 29 30
29 28 29 30 30 30 30 30 29 28 28 27 27 26 25 25 25 25 24 25 25 25 24 24 24 25 26 26 26 26 26 26 26 26 26 26 26 26 26 26 26 27 27 27 27 28 28 27 27 27 27 27 28 28 29 28 27 26 25 25 24 24 24 24 24 24 24 25 25 25 25 24 24 24 24 25 25 26 26 27 27 28 29 30 31
28 28 28 29 30 30 30 30 29 28 27 27 27 27 26 26 26 25 24 24 24 24 25 26 26 26 27 27 28 28 28 29 29 28 28 28 29 28 28 28 29 29 29 29 28 28 28 27 27 27 27 27 27 27 27 26 24 23 23 23 23 23 23 23 23 23 23 24 24 24 24 24 24 25 25 25 26 26 27 28 29 30 31 31 32
26 26 27 28 28 29 29 28 27 26 25 25 25 26 26 26 26 24 23 22 23 23 24 25 26 27 27 27 27 27 28 28 28 28 28 29 29 29 29 29 29 29 29 29 28 28 27 27 27 26 26 25 25 25 24 23 22 21 21 22 22 22 21 21 22 23 23 23 23 24 25 25 25 25 26 26 27 27 28 29 30 31 32 32 33
25 24 24 25 26 27 27 26 26 25 25 25 25 26 25 25 25 23 22 23 24 24 24 25 25 25 25 25 26 26 26 26 26 26 27 28 28 28 27 27 27 27 27 27 27 27 26 25 25 24 24 24 24 23 23 22 22 21 21 22 22 21 21 22 22 23 24 24 24 24 25 25 25 26 26 27 28 28 29 30 31 32 33 34 34
25 24 23 23 24 25 25 25 25 25 25 25 25 24 24 24 23 23 23 24 24 24 24 24 24 23 23 23 23 24 24 24 24 25 25 26 27 26 25 24 24 25 25 25 25 25 24 23 23 23 23 23 22 22 22 22 23 23 23 23 23 22 22 23 23 24 24 24 24 24 25 26 26 27 27 28 29 30 31 32 32 33 34 35 35
25 25 24 24 24 24 24 23 24 23 23 23 22 22 22 23 23 24 24 24 24 23 23 23 22 22 22 22 22 22 22 22 23 23 24 24 24 24 23 23 24 24 23 23 23 22 21 21 21 21 21 21 21 21 21 22 22 23 23 23 23 23 23 23 24 24 24 25 25 26 26 27 27 28 28 29 30 32 32 33 34 35 35 36 37
26 25 24 24 24 24 24 23 23 23 22 22 21 21 21 22 22 23 23 22 22 22 22 21 21 21 21 21 21 21 21 21 21 21 22 22 22 22 21 22 22 22 21 21 21 21 21 21 21 21 21 21 20 20 21 21 22 22 23 23 23 23 24 24 24 24 24 25 26 27 27 28 29 29 30 31 32 32 33 34 35 36 36 37 38
25 25 24 24 24 24 24 24 24 23 23 22 22 22 22 21 21 21 20 20 20 20 20 20 20 20 20 21 21 20 20 20 20 20 21 21 21 20 20 20 20 21 21 21 21 21 21 21 21 22 22 22 21 21 21 22 22 22 22 23 24 24 24 25 25 25 25 26 27 28 29 29 30 31 32 32 33 34 34 35 36 36 37 38 38
24 24 23 24 24 24 25 25 24 24 24 23 23 22 22 21 21 21 20 20 20 20 20 19 19 19 20 20 20 20 20 20 21 21 21 21 21 21 21 21 20 21 21 22 22 22 22 22 22 23 23 23 22 22 22 22 22 22 23 23 24 24 24 24 25 25 25 26 28 29 30 31 32 33 34 34 35 35 35 36 36 36 36 36 36
23 23 23 23 23 24 24 24 24 24 24 23 23 23 23 22 22 22 22 21 21 21 20 20 19 19 19 19 20 20 21 21 21 21 21 22 22 22 21 21 21 22 22 22 22 22 22 22 22 22 22 23 23 23 23 23 24 24 24 24 24 24 25 25 26 26 27 27 29 30 30 31 32 33 34 34 35 35 35 35 35 34 34 34 35
23 24 23 23 23 23 23 23 23 23 24 24 23 23 23 23 23 23 23 22 22 21 21 21 20 20 20 20 20 20 21 21 21 21 22 22 23 22 22 21 21 21 21 21 21 21 21 22 22 22 22 23 23 23 23 24 24 24 24 25 25 26 27 28 29 29 30 30 31 31 32 33 33 33 34 34 34 35 35 34 34 34 34 34 34
23 24 24 24 23 23 23 23 23 24 24 24 24 24 24 24 24 24 24 23 23 23 22 22 21 21 21 21 21 21 21 21 21 21 22 23 22 21 20 20 20 20 20 20 20 20 21 21 21 22 22 23 23 22 22 23 23 24 25 26 27 27 28 29 30 31 32 32 32 33 33 34 34 34 35 35 34 34 34 33 33 33 34 34 34
23 24 24 24 24 24 23 23 24 24 24 25 25 24 24 24 25 25 24 24 24 24 23 23 23 22 22 21 21 22 21 21 21 22 23 21 19 18 18 18 19 19 20 20 20 20 21 21 21 21 22 22 22 22 22 23 24 24 25 26 27 28 29 31 32 32 32 33 33 33 33 33 34 34 34 34 34 33 33 33 33 34 34 34 35
23 24 25 25 25 25 25 24 24 25 25 25 25 25 25 25 25 25 25 25 24 24 24 24 24 23 22 22 22 22 22 22 22 23 22 21 19 19 19 19 19 20 20 20 20 21 21 22 22 22 22 22 22 23 24 24 25 26 27 28 29 30 31 31 32 32 32 33 33 33 33 33 33 33 33 33 33 33 33 33 34 34 34 35 35
24 24 25 25 25 25 25 26 26 26 26 26 26 26 26 25 25 25 26 25 25 25 25 24 24 24 24 24 24 24 23 23 23 23 23 23 23 22 22 21 21 21 21 21 21 21 21 22 22 22 23 23 24 24 25 25 26 27 28 28 29 30 30 30 30 31 32 33 32 32 31 31 32 32 33 34 34 34 34 35 35 36 36 36 36
25 25 25 25 26 26 26 26 26 26 27 27 27 26 26 26 26 26 26 26 26 26 26 25 25 25 25 25 25 25 25 24 24 24 24 23 23 23 22 21 20 20 20 21 21 22 22 22 23 23 24 25 25 25 26 26 26 27 28 29 29 29 29 30 31 32 32 32 31 30 31 31 33 34 34 35 35 35 36 37 37 38 38 37 37
26 26 26 26 26 26 26 26 26 27 27 27 27 27 27 27 27 27 27 27 27 27 27 26 26 26 26 26 26 26 25 25 24 24 24 24 24 23 23 22 22 22 22 23 23 23 23 24 24 25 25 25 26 26 27 27 27 27 28 29 29 29 29 31 32 33 33 31 30 31 32 33 34 35 35 36 36 37 37 38 38 38 38 37 37
Wind_Direction
214 214 215 215 214 214 214 213 214 214 215 215 216 217 218 217 218 217 217 217 216 217 217 217 218 219 220 221 223 224 225 226 226 226 226 227 229 230 229 228 229 231 234 235 235 237 239 241 243 245 244 241 239 236 233 232 232 233 235 237 241 247 255 266 279 288 295 300 303 306 309 310 311 312 313 314 314 313 313 313 314 316 318 318 318
214 215 215 215 215 215 215 215 215 215 215 216 217 218 219 218 218 217 217 218 218 218 219 220 220 221 222 223 224 225 226 228 229 229 230 230 230 232 232 231 232 233 235 237 238 238 240 242 244 247 247 245 242 239 237 235 234 235 236 238 243 248 253 263 276 286 292 297 299 301 304 306 308 311 312 314 315 315 315 315 314 315 316 318 320
214 215 215 215 216 216 216 216 216 216 216 217 218 218 219 219 219 218 218 218 219 220 220 221 222 223 224 224 225 226 227 229 230 231 232 232 232 233 235 234 234 235 237 240 240 241 242 243 244 248 248 246 243 242 239 238 238 239 240 242 247 253 257 263 272 281 288 293 297 299 302 304 306 309 312 316 317 317 317 317 317 316 318 320 321
213 215 216 216 216 216 217 217 217 217 217 218 218 219 219 220 220 220 219 219 220 221 222 222 223 224 225 225 226 228 228 230 231 232 233 234 234 234 235 236 236 237 239 241 242 243 244 244 245 247 248 247 245 244 241 241 242 242 245 249 254 260 264 267 272 278 285 290 294 298 302 305 306 309 313 316 317 317 318 319 320 320 322 323 323
212 215 216 216 216 216 217 218 217 218 218 218 219 219 219 220 220 221 221 220 220 221 222 223 224 225 226 226 227 228 229 230 231 232 233 235 235 235 235 236 238 239 240 242 243 244 245 245 246 248 249 248 247 246 244 243 245 246 249 254 259 266 270 274 277 281 285 290 295 299 303 305 306 309 314 316 317 319 320 321 322 324 325 325 325
212 214 215 216 217 217 218 218 218 218 219 219 219 220 220 220 220 221 222 221 220 221 222 223 224 225 226 227 228 228 230 231 232 232 233 234 236 238 237 238 240 241 241 243 244 245 246 246 247 248 250 249 249 248 246 246 247 249 253 257 262 266 271 275 279 282 286 290 296 300 303 305 307 310 315 316 317 319 321 322 324 325 326 327 327
212 214 215 215 217 218 219 219 219 219 220 220 220 221 221 220 220 221 222 222 221 221 222 223 225 225 226 228 228 229 230 231 232 233 233 234 236 238 239 239 241 243 243 244 245 246 246 247 247 248 250 251 251 250 249 249 250 253 256 259 262 265 268 272 276 280 284 290 295 300 303 306 308 311 315 316 316 318 320 324 326 327 328 328 328
213 214 215 216 217 219 220 220 220 219 220 221 220 221 222 221 221 221 222 222 222 222 222 223 225 226 227 228 229 230 230 231 232 233 234 235 235 238 240 241 242 244 244 245 245 246 246 247 247 248 249 252 253 252 251 251 252 254 256 258 260 262 266 270 273 277 282 288 294 300 304 308 310 312 316 317 317 318 321 324 326 327 329 329 328
215 215 216 217 218 219 219 220 220 220 220 221 221 221 222 222 222 222 222 223 223 223 223 223 224 226 227 228 229 230 231 232 232 232 233 235 236 238 241 243 244 244 245 245 245 245 246 247 247 247 248 250 252 253 253 253 254 255 255 255 257 260 264 268 272 278 283 288 294 299 303 307 310 313 318 319 318 319 321 322 324 326 327 327 327
217 216 216 218 218 218 219 220 220 219 220 221 221 221 221 222 223 223 223 223 224 224 224 224 224 226 227 228 229 231 232 233 233 232 233 235 237 239 241 244 246 245 245 246 245 245 246 248 249 248 248 249 252 253 254 255 254 255 255 255 255 258 262 266 271 276 281 285 290 295 299 304 307 311 315 317 316 317 319 321 322 324 325 326 326
218 217 217 218 218 219 219 220 220 219 220 221 221 221 221 222 223 224 223 224 225 225 225 225 225 226 227 228 230 231 233 233 232 232 233 235 238 241 243 244 246 246 246 246 246 246 246 248 250 250 249 250 252 253 254 255 254 254 255 256 257 259 262 266 270 274 277 280 285 291 295 300 304 309 314 316 315 315 318 320 321 323 324 324 325
218 218 218 218 218 219 220 220 220 220 220 221 222 222 222 222 223 223 224 224 226 227 226 226 226 227 227 228 229 232 234 233 233 233 234 235 238 241 244 245 246 247 247 247 247 247 247 248 249 250 251 251 252 253 254 254 255 256 256 257 258 259 261 264 268 271 273 277 281 286 291 296 301 307 313 316 314 313 316 319 320 320 321 321 322
217 218 218 219 219 220 221 221 221 221 221 221 222 222 222 222 223 223 224 225 226 228 228 227 227 228 228 229 230 232 234 233 233 234 235 236 237 240 244 245 246 247 248 248 248 248 248 249 249 250 251 251 252 253 254 256 257 257 257 258 258 259 260 262 264 266 269 274 279 284 289 294 298 304 311 313 311 311 314 317 318 318 318 319 319
216 217 218 219 220 221 221 222 222 222 222 222 222 222 223 223 223 223 224 226 227 228 229 229 229 229 229 230 231 232 234 234 234 235 236 236 237 239 242 245 246 246 247 249 249 249 249 250 250 251 251 251 252 253 255 257 260 260 260 259 259 259 260 262 263 264 266 270 275 280 286 291 295 301 307 309 308 309 313 314 315 316 316 317 317
216 217 218 219 221 222 222 222 223 223 223 223 223 223 223 223 224 224 225 226 228 230 230 230 230 230 230 231 231 233 234 234 234 235 236 237 238 239 242 244 246 247 248 249 250 251 251 251 251 251 251 251 252 252 254 257 259 260 260 260 259 260 261 262 263 264 266 269 273 278 283 287 291 297 303 306 306 308 311 312 313 314 315 316 317
217 217 218 220 221 222 223 223 224 224 224 224 224 224 223 223 224 225 226 226 228 230 231 231 231 231 231 232 232 234 235 234 234 236 237 238 239 240 242 244 246 248 249 250 251 252 252 252 252 252 252 252 252 252 254 257 258 260 260 261 261 260 261 262 262 262 265 269 273 277 282 285 288 294 300 304 305 307 309 311 312 313 314 316 317
217 218 219 220 222 223 223 224 225 226 226 225 224 224 224 224 224 225 226 226 227 229 230 231 232 232 232 233 234 235 236 236 235 236 238 239 240 242 242 244 246 248 249 251 251 252 253 253 253 253 253 253 253 253 254 256 258 260 261 262 262 261 262 263 262 261 263 267 272 278 282 285 288 294 299 302 304 306 308 310 312 313 314 315 316
218 219 220 221 222 224 225 225 226 227 227 226 225 224 224 224 224 225 226 227 227 228 229 231 232 232 233 234 235 236 238 237 236 237 238 239 240 242 244 245 247 248 249 251 252 252 253 253 253 253 254 254 254 254 254 256 258 259 260 261 262 262 263 264 264 264 265 268 273 278 282 285 288 293 298 300 302 305 306 308 311 313 314 314 315
219 220 220 221 222 224 225 226 227 229 229 227 225 224 224 224 225 226 227 228 228 228 229 230 231 233 234 235 235 237 238 239 237 238 239 239 240 243 244 246 248 249 250 251 251 252 253 253 253 253 253 254 254 254 254 255 257 259 260 261 262 263 264 265 265 266 267 270 274 278 281 285 288 293 298 299 300 302 305 307 310 313 314 314 314
219 219 219 220 222 224 225 226 228 230 229 226 224 224 224 225 225 226 227 228 229 229 229 230 232 233 234 235 235 236 238 239 238 238 239 239 240 242 244 246 247 249 250 252 252 253 254 254 254 252 252 254 254 254 254 255 257 258 259 260 261 263 265 265 264 265 267 270 274 277 281 285 288 292 297 298 298 301 304 307 310 312 313 312 313
218 218 219 220 221 222 224 226 227 228 227 225 223 223 224 224 225 225 227 228 229 229 229 230 232 233 234 235 235 236 237 239 239 238 239 239 240 241 243 245 247 248 250 252 253 254 255 255 255 253 252 253 254 254 254 254 256 258 259 259 261 264 266 266 266 267 268 271 274 277 281 285 288 291 294 297 299 301 304 306 308 310 311 311 312
218 218 219 219 219 221 223 224 225 225 224 222 221 222 223 224 224 225 226 227 227 228 229 230 231 233 234 234 235 236 236 237 238 238 238 239 239 241 243 245 246 248 250 252 254 255 256 256 257 255 253 253 253 254 255 255 256 257 258 259 262 265 267 268 268 268 269 272 275 277 281 284 287 289 293 296 299 301 303 305 307 309 310 311 311
218 218 218 218 218 220 221 222 223 223 222 221 220 220 221 222 222 223 224 225 225 226 227 228 229 231 232 233 234 235 236 236 237 237 238 239 239 240 243 245 246 248 250 252 254 256 256 257 256 255 253 253 253 254 255 256 257 258 259 260 262 265 266 268 269 269 270 272 275 277 280 283 285 288 292 294 297 300 302 304 307 309 309 310 311
217 217 217 217 217 218 219 221 222 222 221 220 221 221 221 222 222 223 223 223 224 224 225 226 228 229 230 232 232 233 235 236 236 236 237 238 240 241 243 244 246 248 250 252 254 256 256 256 256 254 253 253 254 254 256 257 259 259 260 261 262 264 266 267 269 269 270 271 274 276 279 281 283 286 290 293 297 300 302 304 306 307 308 309 310
215 215 216 215 215 217 218 219 221 220 219 220 221 222 223 223 224 224 224 224 224 225 225 226 228 229 231 232 233 235 236 237 238 237 237 238 240 242 243 244 245 246 248 251 253 254 255 256 255 254 254 255 255 256 257 259 259 259 260 261 262 264 265 267 268 268 269 270 272 275 278 280 283 286 290 293 296 299 302 304 305 305 306 308 309
214 214 214 214 214 215 215 217 219 219 218 220 222 224 224 225 225 225 225 226 227 227 228 229 230 231 232 234 235 236 237 238 239 239 239 239 241 242 243 244 244 244 246 248 250 252 254 255 255 256 256 256 256 257 259 259 259 260 261 261 262 264 265 266 267 267 268 268 270 273 276 280 283 287 290 292 294 297 300 302 303 304 306 307 308
213 213 212 212 212 213 214 215 217 218 219 220 223 225 225 226 226 226 226 227 228 229 230 231 231 231 233 234 236 237 238 238 239 240 240 240 242 243 244 245 244 244 244 246 249 252 254 254 254 255 256 256 257 258 260 260 261 261 262 262 263 264 265 266 266 266 266 268 270 273 276 280 283 287 290 291 293 296 298 299 301 302 304 305 307
212 211 211 212 212 213 214 215 217 219 220 221 223 224 225 225 226 226 227 227 228 229 230 230 231 231 232 234 235 236 238 238 239 240 240 240 241 242 243 244 244 243 242 244 248 251 253 254 254 255 256 257 258 260 261 262 263 263 263 264 264 264 265 266 265 265 266 268 270 273 276 279 283 287 289 289 291 294 296 297 299 300 302 305 308
210 210 211 212 213 214 215 216 218 220 221 222 223 224 224 224 224 225 226 227 227 228 228 228 229 230 231 233 234 235 237 238 239 239 238 238 239 240 241 242 243 243 242 244 246 248 251 252 253 254 255 257 258 260 262 263 263 264 264 265 265 265 266 265 265 266 267 268 269 271 275 280 283 285 286 287 289 292 294 295 297 298 301 304 308
210 210 211 212 214 215 216 218 220 221 222 221 220 220 220 221 222 222 223 224 225 225 225 226 228 230 231 233 236 236 236 238 238 237 237 237 238 239 240 241 243 244 243 243 245 248 249 251 253 253 254 256 257 259 261 263 264 264 264 265 265 266 265 265 265 266 266 267 269 272 275 278 281 283 285 286 289 291 293 294 296 298 301 304 308
210 211 212 213 214 215 217 218 219 220 220 219 218 218 218 220 221 221 221 222 223 223 223 224 227 229 231 232 235 236 236 236 237 236 237 237 238 239 240 241 244 245 244 243 245 247 248 250 251 253 254 255 257 259 261 263 265 265 265 266 266 266 265 265 266 265 265 267 269 271 273 276 280 282 285 286 288 290 292 294 296 298 301 305 307
211 212 213 214 214 215 217 217 217 218 218 218 218 218 219 220 221 222 222 222 223 225 225 226 227 230 231 231 232 233 235 236 237 237 237 238 239 240 241 242 244 245 245 245 246 248 249 250 252 254 256 258 260 262 264 266 266 267 267 267 267 266 265 264 264 265 265 266 267 269 273 277 280 283 284 286 288 291 293 295 296 299 302 305 307
211 212 213 213 214 215 215 215 216 217 217 218 219 220 221 222 222 222 223 224 225 226 228 230 231 232 234 234 233 234 235 237 238 239 241 242 243 244 245 246 246 246 246 247 249 251 251 252 255 257 258 260 262 265 266 267 268 268 268 268 267 266 263 262 263 265 266 267 270 272 275 278 280 282 284 286 288 290 292 294 296 299 301 304 306
210 212 213 213 213 214 214 215 215 216 217 219 221 222 223 223 224 224 226 227 229 230 232 235 237 238 239 240 239 239 240 240 241 243 244 246 247 248 249 250 250 248 249 250 252 255 255 256 259 260 261 263 265 266 267 268 268 267 267 266 265 263 261 261 263 265 266 270 272 274 275 277 279 283 286 287 289 290 291 293 296 298 300 303 305
210 211 212 213 213 213 214 214 215 216 218 221 223 225 226 227 228 229 230 232 233 235 237 239 241 242 243 244 244 244 245 245 246 246 247 247 249 249 250 251 252 251 251 253 256 259 259 260 261 262 263 265 266 266 266 267 266 264 263 262 262 263 263 263 264 265 267 270 272 273 275 277 280 283 286 287 288 289 292 294 296 298 300 302 305
210 211 212 213 214 214 213 214 215 217 220 222 224 227 228 229 230 232 233 234 236 238 240 242 242 243 245 246 247 247 247 247 248 248 248 248 249 249 250 251 252 251 252 254 258 259 260 261 262 262 264 265 264 264 265 264 262 261 260 259 261 264 265 264 264 266 267 269 271 273 275 278 280 282 284 286 287 289 292 294 296 298 300 302 304
209 211 212 214 215 214 213 214 215 218 220 222 224 226 228 229 230 231 234 236 238 240 241 242 243 244 245 247 248 249 248 248 249 250 250 250 250 251 252 252 252 251 252 254 257 258 259 260 261 262 262 263 262 262 262 260 258 258 258 259 261 263 264 263 264 266 268 269 271 273 275 277 280 282 284 286 288 290 292 294 297 298 300 302 303
208 210 212 212 212 212 214 215 215 217 219 220 223 225 228 229 230 232 235 238 239 240 241 242 242 244 245 246 247 247 248 248 249 250 251 251 252 253 254 254 253 253 254 255 256 257 257 259 259 259 260 261 261 259 257 255 255 257 259 260 262 263 263 265 267 269 269 270 273 274 275 278 280 282 284 287 289 291 293 295 297 298 300 301 302
208 210 211 212 211 213 214 215 215 217 219 220 223 225 227 228 230 234 237 239 239 239 240 240 241 243 244 245 245 246 247 249 250 250 250 250 251 252 253 253 254 255 256 255 255 256 257 258 258 258 258 259 259 257 254 253 256 259 260 261 262 263 264 267 270 271 271 272 275 276 277 279 281 283 285 288 289 290 292 295 296 297 299 300 301
210 210 211 211 212 214 215 215 216 218 219 221 224 227 229 231 234 237 238 238 238 238 238 239 240 242 243 243 244 245 246 247 248 248 249 249 250 251 251 251 253 254 255 254 252 253 255 257 257 256 255 256 257 257 256 257 260 262 262 263 264 266 268 270 273 273 273 274 276 277 279 280 281 283 286 288 289 291 293 295 296 297 297 298 300
210 211 212 213 213 215 216 217 218 219 220 222 226 230 232 233 235 236 236 236 236 236 237 238 240 241 241 242 244 245 246 247 247 248 249 248 249 250 251 252 252 252 252 251 251 252 254 256 255 255 255 256 258 259 259 261 263 264 265 265 267 269 271 272 274 274 274 275 277 278 280 281 282 284 286 288 290 292 293 293 294 296 297 298 299
208 210 213 214 215 216 218 219 221 223 224 226 229 232 232 232 232 233 233 234 234 235 237 239 240 241 241 242 243 245 246 247 247 247 246 245 246 247 249 250 250 250 249 249 249 250 252 253 254 255 257 258 259 260 261 263 265 266 267 269 271 272 273 274 274 274 275 277 279 279 280 282 284 286 287 288 290 291 292 293 294 296 297 298 299
209 210 212 215 216 218 219 221 223 225 226 228 230 232 233 233 233 234 235 236 236 237 239 240 240 240 240 241 242 243 244 245 245 244 244 244 244 245 246 247 249 249 248 249 249 250 251 252 252 254 256 258 259 261 263 264 266 267 268 270 271 272 273 274 275 276 277 279 281 281 282 284 285 286 287 288 289 290 292 294 295 297 298 299 299
214 214 216 217 218 219 219 220 222 224 226 228 231 233 235 236 236 236 237 237 238 239 239 239 238 238 238 240 242 243 243 245 246 246 246 246 246 246 247 249 249 250 250 251 251 252 252 253 254 256 258 259 261 263 265 266 266 267 268 269 270 271 273 275 276 278 279 280 282 283 284 285 286 286 287 289 290 291 293 294 295 296 298 299 299
218 218 220 221 221 222 222 222 225 227 228 230 232 234 236 238 238 239 238 238 238 238 237 237 238 238 239 240 242 243 244 246 248 249 249 248 248 248 249 250 250 251 251 252 252 254 255 257 258 259 260 261 262 264 266 267 268 268 269 270 271 272 274 275 277 278 280 281 282 282 283 285 286 287 288 289 291 291 292 293 294 295 296 297 298
222 222 222 222 223 224 225 227 228 229 231 232 234 235 237 238 238 239 239 239 238 238 238 238 239 240 240 241 242 245 248 249 250 251 252 250 248 248 248 248 249 251 252 253 254 255 256 257 258 260 261 263 264 265 267 269 270 271 271 272 273 273 275 277 278 279 280 281 282 283 283 285 286 287 288 289 290 290 290 291 293 294 295 296 297
225 224 223 223 224 225 227 229 231 232 233 234 235 236 237 237 238 239 239 239 240 240 239 239 240 241 243 244 245 246 248 249 251 253 254 252 249 248 249 251 252 254 255 255 256 258 259 259 260 262 263 264 266 267 269 272 273 273 273 274 275 276 278 279 279 280 281 281 282 282 283 285 286 287 288 289 288 288 289 291 292 294 295 296 297
228 226 225 226 226 227 228 230 231 233 234 235 236 236 237 238 238 239 239 239 239 240 241 241 241 241 243 245 246 247 248 249 251 253 254 254 254 255 257 259 260 259 257 256 258 260 261 262 262 263 264 265 267 269 271 273 274 275 276 276 278 279 280 280 280 280 281 281 281 282 283 285 286 287 287 287 287 288 289 291 292 294 295 295 296
230 230 229 229 230 230 231 232 232 234 235 236 237 238 238 239 239 239 240 240 240 241 242 242 242 242 243 244 246 248 250 251 251 252 254 255 257 259 261 262 261 260 258 258 260 262 263 264 264 264 265 267 269 270 272 274 275 276 277 278 280 281 282 282 282 282 282 281 281 282 284 285 286 286 287 287 287 288 289 290 292 294 295 295 295
232 233 232 232 232 232 233 233 234 235 236 237 238 239 239 240 240 240 240 241 241 242 242 243 243 243 243 244 246 248 250 251 251 252 253 254 255 257 259 259 257 256 257 259 262 264 265 266 267 267 268 270 271 271 273 275 276 277 278 280 281 282 283 283 284 285 284 282 281 282 283 285 287 287 286 286 287 287 288 290 292 293 293 294 294
233 234 234 234 234 234 235 235 236 236 237 238 238 238 239 240 241 241 241 242 242 242 242 242 242 242 243 244 246 248 250 251 252 251 251 251 252 253 254 254 255 256 257 260 262 264 265 266 268 269 270 271 271 272 274 275 275 276 279 281 282 283 284 286 286 286 285 284 282 283 285 287 287 287 286 286 287 287 288 290 291 292 292 293 293